Погода в Августове

Польша     53°50′22″N   22°58′56″E
темп.,
°C
ветер,
м/с
пор.,
м/с
влажн.,
%
обл.,
%
осадки,
мм/ч
давл.,
гПа
погр.,
м
25 февраля, чт
чт2501:00+4з3799100 0.0 1029151
04:00+2юз369995 0.0 1028122
07:00+3зюз369997 0.0 1028135
10:00+6юз369891 0.0 1028172
13:00+10юз479152 0.0 1027285
16:00+8ююз48950 0.0 1025194
19:00+5юз410950 0.0 1025200
22:00+5юз410920 0.0 1023223
26 февраля, пт
пт2601:00+5зюз49930 0.0 1023186
04:00+5зюз411962 0.0 1021268
07:00+6з5139140 0.0 1022668
10:00+7з61177100 0.0 1021812
13:00+8з71265100 0.0 10211060
16:00+7з6127386 0.0 10201166
19:00+5зсз6127893 0.1 10201051
22:00+4зсз6128484 0.0 1019890
27 февраля, сб
сб2701:00+4зсз5118692 0.0 1020693
04:00+4зсз71288100 0.1 1019740
07:00+3сз71285100 0.1 1020835
10:00+5ссз8136629 0.0 10211136
13:00+7ссз7115715 0.0 10231247
16:00+5сз610630 0.0 10241081
19:00+2сз512770 0.0 1026545
22:000сз511830 0.0 1028440
28 февраля, вс
вс2801:00−1сз410850 0.0 1029363
04:00−1сз39922 0.0 1029298
07:00−1сз398837 0.0 1030367
10:00+3ссз4771100 0.0 1030731
13:00+5ссз4665100 0.0 10301067
16:00+4сз3676100 0.0 1031230
19:00+2ссз3792100 0.1 1032250
22:00+1ссз359785 0.0 1034143
1 марта, пн
пн101:00+2сз259792 0.0 1035203
04:00+2сз369489 0.0 1035165
07:00+2сз389495 0.0 1036337
10:00+3сз3780100 0.0 1037384
13:00+7сз366991 0.0 1036563
16:00+6зсз367410 0.0 1036440
19:00+3зсз369139 0.0 1037129
22:00+2зсз249377 0.0 103890